Simultaneous Nadir Overpasses (SNOs) Predictions

Prediction of SNOs between GOES-17 and METOP-C Satellite Orbit:

Table of predicted SNOs for the next 14.0 days since TLE Epoch: 7/31/2020
Index Date Time (GOES-17) GOES-17 Lat,Lon METOP-C Lat,Lon Distance(km) Time Diff (sec)
1 08/01/2020 06:45:36 0.02,-137.20 -0.20,-138.16 110.31 80
2 08/02/2020 06:22:16 0.03,-137.20 0.94,-133.17 458.83 80
3 08/03/2020 18:41:07 -0.02,-137.20 0.09,-137.73 60.17 80
4 08/06/2020 06:42:07 0.02,-137.19 0.02,-137.33 15.29 80
5 08/08/2020 18:40:18 -0.02,-137.19 -0.08,-136.89 34.34 80
6 08/10/2020 06:59:17 0.02,-137.18 -0.96,-141.48 490.42 80
7 08/11/2020 06:35:58 0.02,-137.17 0.17,-136.49 78.04 80
8 08/12/2020 18:54:49 -0.02,-137.16 0.83,-141.05 442.59 80
9 08/13/2020 18:36:49 -0.01,-137.15 -0.25,-136.04 125.54 80
